This is the latest recevied weather packets stored in our database for station/object E22ZMG-4. If no packets are shown the sender has not sent any weather packets the latest 10 day(s).
| Time | Temp. | Humidity | Pressure | Rain* | Wind** | Luminosity | Snow |
|---|---|---|---|---|---|---|---|
| 1778065278 | 30.56° C | 43% | 971 hPa | - | - | 0 W/m² | - |
| 1778064653 | 30.56° C | 43% | 971 hPa | - | - | 0 W/m² | - |
| 1778064028 | 30° C | 43% | 971 hPa | - | - | 0 W/m² | - |
| 1778063403 | 28.89° C | 44% | 971 hPa | - | - | 0 W/m² | - |
| 1778062778 | 27.22° C | 47% | 971 hPa | - | - | 0 W/m² | - |
| 1778062154 | 26.67° C | 43% | 971 hPa | - | - | 0 W/m² | - |
| 1778061529 | 27.78° C | 48% | 971 hPa | - | - | 0 W/m² | - |
| 1778060904 | 27.22° C | 45% | 971 hPa | - | - | 0 W/m² | - |
| 1778060280 | 26.67° C | 45% | 971 hPa | - | - | 0 W/m² | - |
| 1778059656 | 26.67° C | 40% | 971 hPa | - | - | 0 W/m² | - |
| 1778059031 | 26.67° C | 40% | 971 hPa | - | - | 0 W/m² | - |
| 1778058407 | 26.67° C | 39% | 971 hPa | - | - | 0 W/m² | - |
| 1778057782 | 26.67° C | 41% | 971 hPa | - | - | 0 W/m² | - |
| 1778057157 | 27.22° C | 44% | 972 hPa | - | - | 0 W/m² | - |
| 1778056533 | 27.22° C | 50% | 972 hPa | - | - | 0 W/m² | - |
| 1778055908 | 27.22° C | 46% | 972 hPa | - | - | 0 W/m² | - |
| 1778055284 | 27.22° C | 44% | 972 hPa | - | - | 0 W/m² | - |
| 1778054659 | 27.22° C | 49% | 972 hPa | - | - | 0 W/m² | - |
| 1778054035 | 27.22° C | 48% | 972 hPa | - | - | 0 W/m² | - |
| 1778053409 | 26.67° C | 43% | 972 hPa | - | - | 0 W/m² | - |
| 1778052785 | 27.22° C | 46% | 972 hPa | - | - | 0 W/m² | - |
| 1778052161 | 27.22° C | 48% | 972 hPa | - | - | 0 W/m² | - |
| 1778051536 | 26.67° C | 42% | 973 hPa | - | - | 0 W/m² | - |
| 1778050912 | 26.67° C | 41% | 973 hPa | - | - | 0 W/m² | - |
| 1778050288 | 26.67° C | 42% | 973 hPa | - | - | 0 W/m² | - |
* Rain since midnight (hover to see other rain measurements)
** Current wind speed in m/s (hover to see current wind gust speed)